Tracking 19146 objects as of 22-Apr-2018
HD Live streaming from Space Station
objects crossing your sky now

COSMOS 252 DEB

Track COSMOS 252 DEB now!
10-day predictions


NORAD ID: 3559
Int'l Code: 1968-097M
Perigee: 538.8 km
Apogee: 1,321.2 km
Inclination: 62.3 °
Period: 103.5 minutes
Semi major axis: 7300 km
RCS: 0.1149 m2 (medium)
Launch date: November 1, 1968
Source: Commonwealth of Independent States (former USSR) (CIS)
Launch site: TYURATAM MISSILE AND SPACE COMPLEX (TTMTR)

Note: This is SATELLITE DEBRIS
aabbcc
Your satellite tracking list
Your tracking list is empty




NASA's NSSDC Master Catalog

Two Line Element Set (TLE):
1  3559U 68097M   18112.50227456 +.00000139 +00000-0 +69562-4 0  9991
2  3559 062.2994 087.1765 0535831 226.9269 128.5734 13.91650003427686
Source of the keplerian elements: AFSPC